{"data":{"norad_id":67637,"intl_designator":"2026-020W","name":"STARLINK-36610","alt_names":[],"object_type":"PAYLOAD","status":"ACTIVE","operator":null,"country":"US","launch_date":"2026-01-30","launch_site_code":"AFETR","launch_vehicle":null,"mission":null,"orbit_class":"UNKNOWN","rcs_meters":null,"size_class":null,"mass_kg":null,"dimensions":null,"purposes":["comms"],"wikipedia_slug":null,"has_3d_model":false,"image_url":null,"decayed_at":null,"tle_current":{"epoch":"2026-09-19T21:10:20.849664Z","epoch_age_seconds":122359,"freshness":"FRESH","line1":"1 67637U 26020W   26262.88218576  .00010470  00000+0  38928-3 0  9996","line2":"2 67637  43.0016 123.0067 0001522 267.4490  92.6188 15.27594308 35811","mean_motion":15.27594308,"eccentricity":0.0001522,"inclination_deg":43.0016,"raan_deg":123.0067,"arg_perigee_deg":267.449,"mean_anomaly_deg":92.6188,"bstar":0.00038928,"rev_number":3581,"period_min":94.265865777238,"perigee_km":481.96198707166,"apogee_km":484.0505190779,"semimajor_km":6861.1432530748,"source":"CELESTRAK","updated_at":"2026-09-20T09:00:43.615182Z"}}}